Volver al catálogo

STARLINK-35177

ActivoComunicacionesSSO
NORAD 65673·PAYLOAD·🇺🇸 United States

Lanzado Sep 19, 2025 desde Vandenberg Space Force Base

Loading…

Próximos Pases (próximas 24 horas)

TLE

ActualizadoSource: CelesTrak SupGP

Época: Sep 14, 2026, 22:48 UTC

1 65673C 25211X   26257.95048611  .00051491  00000+0  15988-2 0  2573
2 65673  97.2834 298.2975 0000885  96.2104 311.6786 15.33404858    11

Sigue STARLINK-35177 en tiempo real con AllMySat

Download on the App Store